FW8660 Weather Reports


time (UTC)temp
F
wind
direction
speed
knots
gust
knots
rain 1hr
in
rain 24hr
in
rain mn
in
humidity
%
barometer
mb
20260504081527 65 267 2.6 5.2 0.00 0.00 0.00 85 1013.3
20260504044530 61 97 3.5 7.8 0.00 0.00 0.00 90 1012.7
20260504043031 61 90 5.2 7.8 0.00 0.00 0.00 90 1012.6
20260504041534 61 107 3.5 7.8 0.00 0.00 0.00 90 1012.7
20260504040030 62 97 4.3 7.0 0.00 0.00 0.00 90 1012.5
20260504034526 62 71 4.3 7.8 0.00 0.00 0.00 89 1012.8
20260504033028 62 106 2.6 6.1 0.00 0.00 0.00 89 1012.9
20260504031528 63 131 0.9 5.2 0.00 0.00 0.00 89 1012.9
20260504030029 63 113 1.7 5.2 0.00 0.00 0.00 89 1013.1
20260504024528 63 111 0.9 2.6 0.00 0.00 0.00 89 1013.2
20260504023028 63 96 2.6 5.2 0.00 0.00 0.00 89 1013.2
20260504021530 63 110 0.9 5.2 0.00 0.00 0.00 89 1013.2
20260504020028 63 108 0.9 3.5 0.00 0.00 0.00 89 1013.4
20260504014534 64 0 0.0 2.6 0.00 0.00 0.00 89 1013.3
20260504013032 64 67 1.7 2.6 0.00 0.00 0.00 89 1013.4
20260504011530 63 0 0.0 0.9 0.00 0.00 0.00 89 1013.6
20260504010028 63 98 0.0 5.2 0.00 0.00 0.00 89 1013.6
20260504004529 63 109 2.6 6.1 0.00 0.00 0.00 88 1013.7
20260504003032 63 89 2.6 7.0 0.00 0.00 0.00 88 1013.7
20260504001531 63 83 4.3 7.8 0.00 0.00 0.00 88 1013.9
20260504000028 63 69 3.5 7.0 0.00 0.00 0.00 88 1013.8
20260503234539 64 92 1.7 7.8 0.00 0.00 0.00 87 1014.0
20260503233036 64 67 5.2 7.8 0.00 0.00 0.00 87 1014.1
20260503231533 64 62 3.5 7.8 0.00 0.00 0.00 86 1014.0
20260503230028 64 75 2.6 6.1 0.00 0.00 0.00 86 1014.2
20260503224529 65 96 3.5 7.0 0.00 0.00 0.00 85 1014.2
20260503223027 65 69 1.7 4.3 0.00 0.00 0.00 85 1014.3
20260503221534 65 84 1.7 5.2 0.00 0.00 0.00 84 1014.5
20260503220028 65 75 3.5 7.0 0.00 0.00 0.00 84 1014.6
20260503214530 65 84 4.3 7.8 0.00 0.00 0.00 84 1014.7
20260503213027 65 103 3.5 7.8 0.00 0.00 0.00 84 1014.8
20260503211528 65 49 5.2 7.8 0.00 0.00 0.00 84 1014.7
20260503210028 65 92 6.1 9.6 0.00 0.00 0.00 84 1014.6
20260503204530 65 66 6.1 9.6 0.00 0.00 0.00 83 1014.6
20260503203036 65 99 7.0 9.6 0.00 0.00 0.00 83 1014.5
20260503201530 65 94 4.3 7.0 0.00 0.00 0.00 82 1014.4
20260503200032 65 88 6.1 11.3 0.00 0.00 0.00 82 1014.0
20260503194528 65 106 7.0 11.3 0.00 0.00 0.00 82 1013.6
20260503193028 64 113 6.1 10.4 0.00 0.00 0.00 82 1013.4
20260503191534 64 97 7.8 13.0 0.00 0.00 0.00 81 1013.1
20260503190031 65 93 8.7 12.2 0.00 0.00 0.00 81 1012.9
20260503184529 65 103 7.8 12.2 0.00 0.00 0.00 80 1012.9
20260503183028 65 94 8.7 13.9 0.00 0.00 0.00 80 1012.7
20260503181529 66 98 9.6 17.4 0.00 0.00 0.00 79 1012.6
20260503180030 66 97 9.6 14.8 0.00 0.00 0.00 78 1012.5
20260503174532 67 76 9.6 16.5 0.00 0.00 0.00 77 1012.3
20260503173031 68 111 8.7 14.8 0.00 0.00 0.00 76 1012.3
20260503171528 68 92 7.0 13.9 0.00 0.00 0.00 76 1012.1